GW7247 Weather Reports


time (UTC)temp
C
wind
direction
speed
KPH
gust
KPH
rain 1hr
cm
rain 24hr
cm
rain mn
cm
humidity
%
barometer
mb
20260506034007 13 203 0.0 1.6 0.00 0.00 0.00 73 1007.9
20260506033508 13 202 0.0 1.6 0.00 0.00 0.00 72 1007.9
20260506033016 13 208 0.0 3.2 0.00 0.00 0.00 72 1007.8
20260506032509 13 129 1.6 3.2 0.00 0.00 0.00 72 1007.8
20260506032009 13 177 0.0 1.6 0.00 0.00 0.00 72 1007.7
20260506031527 13 103 0.0 1.6 0.00 0.00 0.00 71 1007.7
20260506031006 13 93 0.0 3.2 0.00 0.00 0.00 71 1007.7
20260506030507 13 162 0.0 3.2 0.00 0.00 0.00 71 1007.8
20260506030019 13 146 0.0 1.6 0.00 0.00 0.00 70 1007.6
20260506025511 13 162 0.0 1.6 0.00 0.00 0.00 70 1007.7
20260506025009 14 159 0.0 3.2 0.00 0.00 0.00 69 1007.8
20260506024520 14 188 0.0 3.2 0.00 0.00 0.00 69 1007.8
20260506024004 14 131 0.0 1.6 0.00 0.00 0.00 68 1007.9
20260506023504 15 217 0.0 3.2 0.00 0.00 0.00 67 1007.8
20260506023012 15 217 0.0 3.2 0.00 0.00 0.00 67 1008.0
20260506022506 15 229 0.0 3.2 0.00 0.00 0.00 66 1007.8
20260506022013 15 186 0.0 3.2 0.00 0.00 0.00 66 1007.9
20260506021514 15 189 0.0 3.2 0.00 0.00 0.00 65 1008.0
20260506021007 16 205 0.0 3.2 0.00 0.00 0.00 64 1008.0
20260506020508 16 121 0.0 4.8 0.00 0.00 0.00 64 1007.9
20260506020021 16 254 0.0 4.8 0.00 0.00 0.00 64 1008.0
20260506015511 16 210 0.0 4.8 0.00 0.00 0.00 64 1008.0
20260506015011 16 210 1.6 4.8 0.00 0.00 0.00 63 1008.0
20260506014522 16 198 0.0 1.6 0.00 0.00 0.00 63 1008.0
20260506014009 16 195 0.0 1.6 0.00 0.00 0.00 63 1008.1
20260506013508 16 203 0.0 3.2 0.00 0.00 0.00 62 1008.0
20260506013009 16 169 0.0 3.2 0.00 0.00 0.00 63 1008.0
20260506012505 16 205 0.0 0.0 0.00 0.00 0.00 63 1007.9
20260506012007 17 205 0.0 0.0 0.00 0.00 0.00 62 1007.9
20260506011530 17 205 0.0 1.6 0.00 0.00 0.00 62 1007.9
20260506011007 17 188 0.0 1.6 0.00 0.00 0.00 62 1007.9
20260506010511 17 222 0.0 1.6 0.00 0.00 0.00 62 1007.8
20260506010020 17 112 0.0 1.6 0.00 0.00 0.00 62 1007.6
20260506005509 17 181 0.0 3.2 0.00 0.00 0.00 62 1007.7
20260506005008 17 181 0.0 3.2 0.00 0.00 0.00 61 1007.6
20260506004522 17 170 0.0 3.2 0.00 0.00 0.00 61 1007.6
20260506004010 17 137 0.0 4.8 0.00 0.00 0.00 61 1007.7
20260506003512 17 239 0.0 4.8 0.00 0.00 0.00 61 1007.7
20260506003022 17 252 1.6 8.0 0.00 0.00 0.00 60 1007.6
20260506002514 17 114 3.2 8.0 0.00 0.00 0.00 61 1007.5
20260506002011 17 241 0.0 1.6 0.00 0.00 0.00 60 1007.1
20260506001512 17 198 0.0 1.6 0.00 0.00 0.00 60 1007.0
20260506001006 17 221 0.0 1.6 0.00 0.00 0.00 59 1006.8
20260506000514 18 200 0.0 3.2 0.00 0.00 0.00 59 1006.6
20260506000023 18 55 1.6 3.2 0.00 0.00 0.00 58 1006.6
20260505235507 18 111 0.0 3.2 0.00 0.00 0.00 57 1006.5
20260505235008 18 119 0.0 6.4 0.00 0.00 0.00 57 1006.5
20260505234536 18 112 1.6 6.4 0.00 0.00 0.00 56 1006.2
20260505234009 19 70 0.0 3.2 0.00 0.00 0.00 58 1006.3
20260505233509 19 264 0.0 4.8 0.00 0.00 0.00 57 1006.5
20260505233024 19 264 0.0 9.7 0.00 0.00 0.00 56 1006.4
20260505232513 19 214 0.0 11.3 0.00 0.00 0.00 56 1006.6
20260505232009 18 203 4.8 11.3 0.00 0.00 0.00 56 1006.6
20260505231523 18 183 1.6 16.1 0.00 0.00 0.00 56 1006.5
20260505231009 18 250 3.2 16.1 0.00 0.00 0.00 57 1006.6
20260505230509 18 240 6.4 16.1 0.00 0.00 0.00 58 1006.6
20260505230025 17 253 3.2 17.7 0.00 0.00 0.00 60 1006.6
20260505225508 17 66 4.8 17.7 0.00 0.00 0.00 60 1007.2
20260505225009 17 207 6.4 16.1 0.00 0.00 0.00 60 1005.1
20260505224532 17 307 4.8 20.9 0.00 0.00 0.00 59 1004.7
20260505224008 17 194 9.7 20.9 0.00 0.00 0.00 59 1004.6
20260505223509 17 188 6.4 20.9 0.00 0.00 0.00 59 1004.6
20260505223024 17 230 8.0 25.7 0.00 0.00 0.00 58 1004.4
20260505222512 17 102 6.4 25.7 0.00 0.00 0.00 58 1004.5
20260505222012 17 225 8.0 22.5 0.00 0.00 0.00 59 1004.5
20260505221524 17 240 4.8 22.5 0.00 0.00 0.00 59 1004.5
20260505221009 17 135 9.7 32.2 0.00 0.00 0.00 58 1004.4
20260505220510 17 229 9.7 32.2 0.00 0.00 0.00 58 1004.3
20260505220023 17 191 6.4 32.2 0.00 0.00 0.00 58 1004.4
20260505215509 17 245 11.3 32.2 0.00 0.00 0.00 58 1004.2
20260505215007 17 201 8.0 27.4 0.00 0.00 0.00 59 1004.2
20260505214520 17 246 11.3 27.4 0.00 0.00 0.00 58 1004.2
20260505214009 17 295 11.3 24.1 0.00 0.00 0.00 58 1004.2
20260505213511 17 203 9.7 24.1 0.00 0.00 0.00 58 1004.2
20260505213024 17 208 6.4 24.1 0.00 0.00 0.00 59 1004.0
20260505212509 17 46 6.4 24.1 0.00 0.00 0.00 59 1004.0
20260505212015 17 185 8.0 24.1 0.00 0.00 0.00 59 1003.9
20260505211529 17 220 6.4 27.4 0.00 0.00 0.00 59 1003.9
20260505211010 17 255 8.0 27.4 0.00 0.00 0.00 59 1003.8
20260505210509 17 252 9.7 27.4 0.00 0.00 0.00 58 1003.9
20260505210030 18 227 8.0 24.1 0.00 0.00 0.00 56 1004.0
20260505205512 18 201 8.0 25.7 0.00 0.00 0.00 56 1004.0
20260505205011 18 58 11.3 25.7 0.00 0.00 0.00 55 1004.0
20260505204528 19 200 8.0 33.8 0.00 0.00 0.00 55 1003.8
20260505204010 19 236 9.7 33.8 0.00 0.00 0.00 55 1003.9
20260505203506 19 285 8.0 22.5 0.00 0.00 0.00 54 1004.0
20260505203016 19 200 8.0 24.1 0.00 0.00 0.00 54 1004.0
20260505202509 20 173 8.0 24.1 0.00 0.00 0.00 54 1004.0
20260505202010 20 225 6.4 20.9 0.00 0.00 0.00 54 1004.0
20260505201524 20 216 12.9 20.9 0.00 0.00 0.00 53 1004.0
20260505201011 20 245 9.7 20.9 0.00 0.00 0.00 52 1004.1
20260505200508 20 84 4.8 20.9 0.00 0.00 0.00 53 1004.1
20260505200026 20 184 9.7 17.7 0.00 0.00 0.00 53 1004.3
20260505195509 20 204 6.4 17.7 0.00 0.00 0.00 53 1004.2
20260505195010 20 208 8.0 19.3 0.00 0.00 0.00 53 1004.2
20260505194533 20 264 3.2 19.3 0.00 0.00 0.00 53 1004.3
20260505194011 20 217 8.0 14.5 0.00 0.00 0.00 53 1004.4
20260505193510 20 230 4.8 24.1 0.00 0.00 0.00 53 1004.4
20260505193026 20 116 6.4 24.1 0.00 0.00 0.00 53 1004.5
20260505192507 20 257 9.7 24.1 0.00 0.00 0.00 52 1004.6
20260505192010 20 174 4.8 19.3 0.00 0.00 0.00 53 1004.7
20260505191518 20 143 6.4 29.0 0.00 0.00 0.00 53 1004.7
20260505191007 20 174 9.7 29.0 0.00 0.00 0.00 52 1005.0
20260505190506 21 200 6.4 17.7 0.00 0.00 0.00 52 1005.0
20260505190025 21 211 6.4 17.7 0.00 0.00 0.00 51 1005.1
20260505185509 21 51 6.4 20.9 0.00 0.00 0.00 52 1005.1
20260505185012 21 210 6.4 24.1 0.00 0.00 0.00 52 1005.1
20260505184532 21 188 6.4 24.1 0.00 0.00 0.00 51 1005.2
20260505184014 21 124 4.8 22.5 0.00 0.00 0.00 51 1005.3
20260505183511 21 57 8.0 22.5 0.00 0.00 0.00 52 1005.3
20260505183027 20 319 8.0 27.4 0.00 0.00 0.00 51 1005.5
20260505182507 21 128 12.9 27.4 0.00 0.00 0.00 50 1005.6
20260505182012 21 179 8.0 20.9 0.00 0.00 0.00 50 1005.6
20260505181531 21 210 4.8 12.9 0.00 0.00 0.00 50 1005.5
20260505181012 21 218 4.8 16.1 0.00 0.00 0.00 50 1005.6
20260505180507 21 307 4.8 16.1 0.00 0.00 0.00 52 1005.7
20260505180020 21 196 6.4 16.1 0.00 0.00 0.00 53 1005.7
20260505175510 20 248 4.8 14.5 0.00 0.00 0.00 52 1005.9
20260505175007 20 183 4.8 16.1 0.00 0.00 0.00 54 1005.7
20260505174525 20 239 4.8 16.1 0.00 0.00 0.00 53 1005.7
20260505174011 21 225 4.8 22.5 0.00 0.00 0.00 51 1005.9
20260505173511 21 97 3.2 22.5 0.00 0.00 0.00 52 1005.9
20260505173027 21 167 4.8 17.7 0.00 0.00 0.00 49 1006.0
20260505172511 22 141 4.8 29.0 0.00 0.00 0.00 48 1005.9
20260505172011 22 19 4.8 29.0 0.00 0.00 0.00 49 1006.0
20260505171526 22 204 6.4 17.7 0.00 0.00 0.00 48 1006.0
20260505171011 22 200 3.2 12.9 0.00 0.00 0.00 48 1006.0
20260505170510 22 136 3.2 12.9 0.00 0.00 0.00 49 1006.1
20260505170028 22 122 3.2 17.7 0.00 0.00 0.00 48 1006.2
20260505165511 22 245 4.8 17.7 0.00 0.00 0.00 47 1006.3
20260505165009 22 161 3.2 11.3 0.00 0.00 0.00 49 1006.5
20260505164521 22 207 1.6 11.3 0.00 0.00 0.00 49 1006.5
20260505164009 22 236 1.6 12.9 0.00 0.00 0.00 49 1006.6
20260505163509 22 40 3.2 12.9 0.00 0.00 0.00 49 1006.6
20260505163024 22 100 1.6 12.9 0.00 0.00 0.00 53 1006.8
20260505162508 21 100 3.2 12.9 0.00 0.00 0.00 51 1006.9
20260505162012 22 167 3.2 9.7 0.00 0.00 0.00 50 1007.0
20260505161529 22 245 3.2 9.7 0.00 0.00 0.00 50 1007.0
20260505161007 22 237 0.0 11.3 0.00 0.00 0.00 53 1007.0
20260505160510 21 121 1.6 11.3 0.00 0.00 0.00 52 1007.2
20260505153024 20 263 6.4 11.3 0.00 0.00 0.00 52 1007.6
20260505152509 20 201 3.2 11.3 0.00 0.00 0.00 53 1007.7
20260505152012 20 250 4.8 9.7 0.00 0.00 0.00 54 1007.9
20260505151527 19 167 1.6 9.7 0.00 0.00 0.00 55 1007.9
20260505151010 18 170 1.6 9.7 0.00 0.00 0.00 57 1007.9
20260505150511 18 187 3.2 9.7 0.00 0.00 0.00 59 1008.0
20260505140510 20 179 1.6 9.7 0.00 0.00 0.00 51 1007.3
20260505125011 16 20 3.2 12.9 0.00 0.00 0.00 61 1007.8
20260505124539 16 96 1.6 8.0 0.00 0.00 0.00 61 1007.8
20260505124009 16 179 3.2 8.0 0.00 0.00 0.00 60 1007.8
20260505123512 15 249 3.2 9.7 0.00 0.00 0.00 60 1007.8
20260505123026 15 136 1.6 9.7 0.00 0.00 0.00 61 1007.9
20260505122511 15 82 0.0 4.8 0.00 0.00 0.00 61 1007.8
20260505122011 15 52 1.6 4.8 0.00 0.00 0.00 62 1007.7
20260505121530 15 102 0.0 12.9 0.00 0.00 0.00 62 1007.8
20260505121013 15 141 1.6 12.9 0.00 0.00 0.00 63 1007.8
20260505120510 14 76 1.6 9.7 0.00 0.00 0.00 63 1007.9
20260505120024 14 236 0.0 6.4 0.00 0.00 0.00 65 1007.9
20260505115509 13 224 1.6 12.9 0.00 0.00 0.00 65 1008.0
20260505115010 13 182 3.2 12.9 0.00 0.00 0.00 66 1008.1
20260505114526 13 202 0.0 6.4 0.00 0.00 0.00 67 1008.1
20260505114012 13 219 1.6 6.4 0.00 0.00 0.00 68 1008.1
20260505113509 12 276 1.6 4.8 0.00 0.00 0.00 68 1008.3
20260505113029 12 217 1.6 4.8 0.00 0.00 0.00 69 1008.4
20260505112511 12 77 1.6 3.2 0.00 0.00 0.00 71 1008.3
20260505112008 11 104 0.0 3.2 0.00 0.00 0.00 72 1008.2
20260505111536 11 213 0.0 4.8 0.00 0.00 0.00 73 1008.2
20260505111008 11 65 0.0 9.7 0.00 0.00 0.00 74 1008.2
20260505110507 11 200 3.2 9.7 0.00 0.00 0.00 74 1008.2
20260505102010 8 141 0.0 0.0 0.00 0.00 0.00 78 1008.2
20260505101528 8 141 0.0 0.0 0.00 0.00 0.00 78 1008.2
20260505101007 8 141 0.0 0.0 0.00 0.00 0.00 78 1008.2
20260505100510 8 141 0.0 0.0 0.00 0.00 0.00 77 1008.2
20260505100036 8 141 0.0 0.0 0.00 0.00 0.00 78 1008.1
20260505095508 8 141 0.0 0.0 0.00 0.00 0.00 77 1008.2
20260505095010 8 141 0.0 0.0 0.00 0.00 0.00 77 1008.1
20260505094522 8 141 0.0 0.0 0.00 0.00 0.00 76 1008.1
20260505094010 8 141 0.0 0.0 0.00 0.00 0.00 76 1008.1
20260505093503 9 179 0.0 0.0 0.00 0.00 0.00 76 1008.1
20260505093013 9 179 0.0 0.0 0.00 0.00 0.00 76 1008.2
20260505092504 9 179 0.0 0.0 0.00 0.00 0.00 75 1008.1
20260505092006 9 179 0.0 0.0 0.00 0.00 0.00 74 1008.2
20260505091515 10 179 0.0 0.0 0.00 0.00 0.00 73 1008.2
20260505091004 10 179 0.0 0.0 0.00 0.00 0.00 71 1008.2
20260505090507 10 179 0.0 0.0 0.00 0.00 0.00 70 1008.3
20260505090017 10 148 0.0 0.0 0.00 0.00 0.00 68 1008.3
20260505085508 10 148 0.0 0.0 0.00 0.00 0.00 67 1008.3
20260505085011 11 148 0.0 1.6 0.00 0.00 0.00 65 1008.3
20260505084523 11 195 0.0 1.6 0.00 0.00 0.00 64 1008.4
20260505084006 11 193 0.0 1.6 0.00 0.00 0.00 63 1008.3
20260505083514 11 192 0.0 1.6 0.00 0.00 0.00 62 1008.3
20260505083033 12 206 0.0 1.6 0.00 0.00 0.00 62 1008.3
20260505082507 12 219 0.0 1.6 0.00 0.00 0.00 61 1008.4
20260505082006 12 219 0.0 3.2 0.00 0.00 0.00 61 1008.5
20260505081512 12 244 0.0 3.2 0.00 0.00 0.00 60 1008.4
20260505081004 12 237 1.6 4.8 0.00 0.00 0.00 60 1008.5
20260505080504 12 246 0.0 4.8 0.00 0.00 0.00 60 1008.4
20260505080010 12 201 1.6 4.8 0.00 0.00 0.00 60 1008.4
20260505075507 12 193 1.6 6.4 0.00 0.00 0.00 59 1008.4
20260505075008 12 217 1.6 6.4 0.00 0.00 0.00 59 1008.4
20260505074516 12 276 3.2 6.4 0.00 0.00 0.00 58 1008.5
20260505074007 12 224 3.2 6.4 0.00 0.00 0.00 58 1008.5
20260505073508 12 256 3.2 9.7 0.00 0.00 0.00 58 1008.5
20260505073022 12 211 3.2 9.7 0.00 0.00 0.00 58 1008.5
20260505072511 13 238 1.6 9.7 0.00 0.00 0.00 57 1008.4
20260505072011 13 200 1.6 9.7 0.00 0.00 0.00 57 1008.3
20260505071535 13 229 3.2 12.9 0.00 0.00 0.00 56 1008.3
20260505071013 13 205 6.4 12.9 0.00 0.00 0.00 56 1008.2
20260505070506 13 198 3.2 8.0 0.00 0.00 0.00 56 1008.3
20260505070010 13 241 3.2 12.9 0.00 0.00 0.00 55 1008.2
20260505065507 13 255 3.2 12.9 0.00 0.00 0.00 55 1008.2
20260505065010 13 231 3.2 11.3 0.00 0.00 0.00 55 1008.1
20260505064008 13 198 3.2 9.7 0.00 0.00 0.00 54 1008.1
20260505063508 13 232 3.2 11.3 0.00 0.00 0.00 54 1008.1
20260505063029 13 212 4.8 11.3 0.00 0.00 0.00 54 1008.0
20260505062511 13 252 4.8 11.3 0.00 0.00 0.00 53 1008.0
20260505062013 14 205 4.8 11.3 0.00 0.00 0.00 53 1008.0
20260505061532 14 251 4.8 16.1 0.00 0.00 0.00 53 1008.1
20260505061006 14 229 6.4 16.1 0.00 0.00 0.00 53 1008.1
20260505060510 14 188 3.2 9.7 0.00 0.00 0.00 53 1008.1
20260505060027 14 221 3.2 9.7 0.00 0.00 0.00 52 1008.1
20260505055512 14 234 4.8 16.1 0.00 0.00 0.00 52 1008.1
20260505055006 14 240 4.8 16.1 0.00 0.00 0.00 52 1008.1
20260505054514 14 205 3.2 8.0 0.00 0.00 0.00 52 1008.1
20260505054008 15 198 3.2 8.0 0.00 0.00 0.00 51 1008.1
20260505053507 15 190 3.2 19.3 0.00 0.00 0.00 51 1008.1
20260505053014 15 256 3.2 19.3 0.00 0.00 0.00 51 1008.1
20260505052510 15 221 6.4 11.3 0.00 0.00 0.00 51 1008.0
20260505052009 15 244 3.2 12.9 0.00 0.00 0.00 51 1008.0
20260505051534 15 217 4.8 12.9 0.00 0.00 0.00 50 1008.1
20260505051009 15 212 4.8 12.9 0.00 0.00 0.00 50 1008.0
20260505050508 15 232 6.4 14.5 0.00 0.00 0.00 50 1008.1
20260505041540 15 263 3.2 12.9 0.00 0.00 0.00 50 1007.8
20260505041009 15 228 3.2 12.9 0.00 0.00 0.00 50 1007.7
20260505040509 15 217 4.8 12.9 0.00 0.00 0.00 50 1007.6
20260505040022 15 245 6.4 12.9 0.00 0.00 0.00 50 1007.6
20260505035507 15 207 6.4 12.9 0.00 0.00 0.00 50 1007.6
20260505035011 15 215 3.2 16.1 0.00 0.00 0.00 50 1007.5
20260505034526 15 206 6.4 16.1 0.00 0.00 0.00 51 1007.6